Simultaneous Nadir Overpasses (SNOs) Predictions

Prediction of SNOs between GOES-14 and NOAA-20 Satellite Orbit:

Table of predicted SNOs for the next 14.0 days since TLE Epoch: 11/26/2022
Index Date Time (GOES-14) GOES-14 Lat,Lon NOAA-20 Lat,Lon Distance(km) Time Diff (sec)
1 11/27/2022 08:38:46 -0.01,-104.35 0.82,-108.03 419.24 80
2 11/28/2022 08:17:20 0.00,-104.34 -0.19,-103.49 96.42 80
3 11/30/2022 20:20:29 0.01,-104.03 -0.03,-104.24 24.18 80
4 12/01/2022 20:04:24 0.00,-104.04 0.99, -99.71 493.79 80
5 12/03/2022 08:26:12 -0.03,-104.35 0.10,-104.99 72.66 80
6 12/04/2022 08:04:45 -0.01,-104.35 -0.85,-100.45 443.70 80
7 12/05/2022 20:26:40 0.03,-104.02 -0.36,-105.74 195.34 80
8 12/06/2022 20:10:34 0.02,-104.03 0.65,-101.20 322.69 80
9 12/08/2022 08:32:23 -0.04,-104.37 0.43,-106.49 240.74 80
10 12/09/2022 08:10:57 -0.02,-104.36 -0.59,-101.95 275.61 80
